FW3092 Weather Reports


Display with metric or nautical units.
time (UTC)temp
F
wind
direction
speed
MPH
gust
MPH
rain 1hr
in
rain 24hr
in
rain mn
in
humidity
%
barometer
mb
20260506134533 53 184 6.0 9.0 0.11 0.33 0.22 93 949.7
20260506133031 53 202 7.0 12.0 0.11 0.31 0.20 93 950.0
20260506131530 52 173 6.0 11.0 0.10 0.28 0.18 93 950.2
20260506130024 51 175 5.0 9.0 0.08 0.26 0.15 93 950.5
20260506124523 51 187 4.0 8.0 0.05 0.22 0.11 93 950.2
20260506123022 51 181 5.0 9.0 0.04 0.20 0.09 93 950.0
20260506121520 51 145 2.0 7.0 0.04 0.19 0.08 93 949.7
20260506120016 50 124 1.0 6.0 0.04 0.18 0.07 92 950.0
20260506114520 49 146 1.0 3.0 0.03 0.17 0.06 92 950.5
20260506113014 48 5 0.0 1.0 0.02 0.16 0.05 92 950.4
20260506111511 48 5 0.0 0.0 0.02 0.15 0.04 92 950.6
20260506110010 47 5 0.0 0.0 0.01 0.14 0.03 92 950.5
20260506104509 47 5 0.0 2.0 0.01 0.14 0.03 91 950.6
20260506103014 47 355 1.0 4.0 0.02 0.14 0.03 91 950.5
20260506101506 48 342 1.0 5.0 0.01 0.13 0.02 91 950.1
20260506100004 49 343 2.0 4.0 0.02 0.13 0.02 91 950.0
20260506094513 49 155 1.0 2.0 0.02 0.13 0.02 91 950.2
20260506093007 49 155 1.0 2.0 0.01 0.12 0.01 91 950.1
20260506091503 48 186 0.0 0.0 0.01 0.12 0.01 91 950.1
20260506090001 48 186 0.0 2.0 0.00 0.11 0.00 91 950.4
20260506084608 48 136 1.0 3.0 0.00 0.11 0.00 91 950.5
20260506083059 48 136 0.0 3.0 0.00 0.11 0.00 91 950.6
20260506081559 48 67 2.0 6.0 0.00 0.11 0.00 91 950.6
20260506073052 48 46 0.0 2.0 0.00 0.11 0.00 90 950.7
20260506071607 48 41 0.0 3.0 0.00 0.11 0.00 90 950.8
20260506061544 49 71 2.0 4.0 0.00 0.11 0.00 89 951.4
20260506044535 50 66 1.0 3.0 0.00 0.11 0.00 88 952.4
20260506043031 50 66 1.0 5.0 0.00 0.11 0.00 87 952.5
20260506041545 50 69 2.0 4.0 0.00 0.11 0.00 87 952.4
20260506040027 50 64 2.0 5.0 0.00 0.11 0.00 87 952.3
20260506034524 50 65 1.0 5.0 0.00 0.11 0.11 87 952.6
20260506033028 51 46 0.0 5.0 0.00 0.11 0.11 87 952.9
20260506031525 51 26 0.0 4.0 0.00 0.11 0.11 87 952.5
20260506030024 52 22 0.0 5.0 0.00 0.11 0.11 87 952.8
20260506024516 52 29 1.0 8.0 0.00 0.11 0.11 87 952.8
20260506023015 53 317 1.0 5.0 0.00 0.11 0.11 86 952.8
20260506021512 53 348 1.0 5.0 0.00 0.11 0.11 86 952.9
20260506020014 54 341 1.0 5.0 0.00 0.11 0.11 86 952.8
20260506014511 55 43 1.0 9.0 0.00 0.11 0.11 87 952.4
20260506013002 56 308 1.0 10.0 0.00 0.11 0.11 87 952.2
20260506011604 58 256 3.0 11.0 0.00 0.11 0.11 87 952.0
20260506004600 59 320 2.0 9.0 0.00 0.11 0.11 86 951.7
20260506003056 59 280 3.0 8.0 0.00 0.11 0.11 86 951.6
20260506001614 60 281 2.0 9.0 0.00 0.11 0.11 85 951.2
20260506000054 60 244 6.0 10.0 0.00 0.11 0.11 85 951.0
20260505234556 61 229 2.0 7.0 0.00 0.11 0.11 85 950.9
20260505233058 61 215 4.0 9.0 0.00 0.11 0.11 84 950.9
20260505231556 61 240 4.0 9.0 0.00 0.11 0.11 84 950.7
20260505230105 61 229 4.0 9.0 0.00 0.11 0.11 84 950.6
20260505224553 62 242 8.0 14.0 0.00 0.11 0.11 83 950.9
20260505223150 62 236 7.0 14.0 0.00 0.11 0.11 82 950.9
20260505221553 63 240 4.0 8.0 0.00 0.11 0.11 81 950.5
20260505220051 64 274 5.0 12.0 0.00 0.11 0.11 80 950.2
20260505214600 64 234 4.0 12.0 0.00 0.11 0.11 79 950.1
20260505213056 64 226 6.0 9.0 0.00 0.11 0.11 81 950.0
20260505211547 61 223 5.0 8.0 0.01 0.11 0.11 84 949.8
20260505210052 60 208 3.0 7.0 0.01 0.11 0.11 87 949.9
20260505204547 59 238 2.0 5.0 0.03 0.11 0.11 87 950.0
20260505203048 59 281 3.0 7.0 0.05 0.11 0.11 87 950.3
20260505201551 59 279 6.0 13.0 0.04 0.10 0.10 87 950.6
20260505200043 59 292 10.0 23.0 0.04 0.10 0.10 85 951.0
20260505194542 64 290 15.0 27.0 0.02 0.08 0.08 76 951.0
20260505193047 71 222 15.0 22.0 0.00 0.06 0.06 48 949.3
20260505191549 72 247 12.0 24.0 0.01 0.06 0.06 48 948.8
20260505190044 72 238 17.0 24.0 0.01 0.06 0.06 49 948.8
20260505184540 72 200 11.0 27.0 0.01 0.06 0.06 55 948.8
20260505183047 72 192 13.0 26.0 0.06 0.06 0.06 55 949.0
20260505181534 71 205 13.0 26.0 0.05 0.05 0.05 59 949.3
20260505180040 67 221 11.0 19.0 0.05 0.05 0.05 68 949.5
20260505174538 67 239 10.0 20.0 0.05 0.05 0.05 71 950.0
20260505173038 71 215 9.0 19.0 0.00 0.00 0.00 57 949.8
20260505171536 72 227 13.0 25.0 0.00 0.00 0.00 52 949.7
20260505170030 73 216 11.0 23.0 0.00 0.00 0.00 52 949.6
20260505164535 73 171 9.0 20.0 0.00 0.00 0.00 52 949.4
20260505163027 73 221 12.0 22.0 0.00 0.00 0.00 51 949.6
20260505161525 73 220 12.0 25.0 0.00 0.00 0.00 51 950.0
20260505153026 72 233 17.0 27.0 0.00 0.00 0.00 51 950.0
20260505151515 71 205 11.0 27.0 0.00 0.00 0.00 54 949.9
20260505140127 68 207 12.0 23.0 0.00 0.00 0.00 60 950.1